This demonstration page uses our WeatherBlox Daily Observations layout. Learn more.

Left ArrowRight Arrow

Hourly Observations for April 16, 2020

Temp ( °F °C ) Dew Point ( °F °C ) Humidity (%) Winds ( mph kmh ) Pressure ( in mb ) Visibility ( mi km ) Precip ( " mm )
12:15 am 00:15 Mostly Cloudy 42 5.6 32 0.2 69 69 NE 5 7 30.12 1020 10 16.0934 0 0
12:35 am 00:35 Mostly Cloudy 42 5.3 32 0 69 69 NE 8 13 30.13 1020 10 16.0934 0 0
12:55 am 00:55 Partly Cloudy 40 4.5 30 -1.3 66 66 ENE 8 13 30.13 1020 10 16.0934 0 0
1:15 am 01:15 Partly Cloudy 40 4.7 27 -2.6 60 60 E 9 15 30.13 1020 10 16.0934 0 0
1:35 am 01:35 Partly Cloudy 38 3.5 28 -2.4 66 66 NNE 10 17 30.15 1021 10 16.0934 0 0
1:55 am 01:55 Partly Cloudy 38 3.2 30 -1 74 74 NNE 9 15 30.15 1021 10 16.0934 0 0
2:15 am 02:15 Clear 38 3.5 32 0.1 79 79 NE 14 22 30.15 1021 10 16.0934 0 0
2:35 am 02:35 Clear 38 3.3 33 0.5 82 82 NE 15 24 30.15 1021 10 16.0934 0 0
2:55 am 02:55 Clear 38 3.3 33 0.3 81 81 ENE 15 24 30.15 1021 10 16.0934 0 0
3:15 am 03:15 Clear 37 3 33 0.5 84 84 ENE 13 20 30.17 1022 10 16.0934 0 0
3:35 am 03:35 Clear 37 2.7 32 0.1 83 83 NE 14 22 30.17 1022 10 16.0934 0 0
3:55 am 03:55 Clear 37 2.6 32 0.2 84 84 NE 14 22 30.16 1021 10 16.0934 0 0
4:15 am 04:15 Mostly Cloudy 36 2.3 34 0.9 91 91 NE 17 28 30.16 1021 10 16.0934 0 0
4:35 am 04:35 Mostly Cloudy 35 1.7 32 0 89 89 NE 15 24 30.18 1022 10 16.0934 0 0
4:55 am 04:55 Partly Cloudy 35 1.5 31 -0.7 85 85 NE 16 26 30.18 1022 10 16.0934 0 0
5:15 am 05:15 Mostly Cloudy 35 1.5 30 -0.9 84 84 NE 16 26 30.18 1022 10 16.0934 0 0
5:35 am 05:35 Cloudy 34 1.3 30 -1 85 85 NE 18 30 30.18 1022 10 16.0934 0 0
5:55 am 05:55 Cloudy 34 1.2 29 -1.9 80 80 ENE 17 28 30.18 1022 10 16.0934 0 0
6:15 am 06:15 Cloudy 34 1.2 28 -2.2 78 78 ENE 20 31 30.18 1022 10 16.0934 0 0
6:35 am 06:35 Cloudy 34 1.3 27 -2.7 75 75 ENE 21 33 30.18 1022 10 16.0934 0 0
6:55 am 06:55 Cloudy 35 1.4 26 -3.1 72 72 ENE 22 35 30.19 1022 10 16.0934 0 0
7:15 am 07:15 Cloudy 34 1.3 27 -2.9 74 74 ENE 22 35 30.19 1022 10 16.0934 0 0
7:35 am 07:35 Cloudy 34 1.2 27 -2.9 74 74 ENE 24 39 30.2 1023 10 16.0934 0 0
7:55 am 07:55 Cloudy 34 1.1 27 -2.8 76 76 ENE 24 39 30.2 1023 10 16.0934 0 0
8:15 am 08:15 Cloudy 34 1 27 -2.6 77 77 ENE 23 37 30.21 1023 10 16.0934 0 0
8:35 am 08:35 Cloudy 34 1 28 -2.5 78 78 ENE 25 41 30.22 1023 10 16.0934 0 0
8:55 am 08:55 Cloudy 34 1.1 28 -2.3 78 78 ENE 25 41 30.2 1023 10 16.0934 0 0
9:15 am 09:15 Cloudy 34 1 29 -1.8 82 82 ENE 24 39 30.2 1023 10 16.0934 0 0
9:35 am 09:35 Cloudy 34 0.9 29 -1.6 84 84 ENE 26 43 30.21 1023 10 16.0934 0 0
9:55 am 09:55 Cloudy 34 1 29 -1.5 84 84 ENE 23 37 30.2 1023 10 16.0934 0 0
10:15 am 10:15 Cloudy 33 0.7 29 -1.5 85 85 ENE 24 39 30.21 1023 10 16.0934 0 0
10:35 am 10:35 Windy with Snow Likely 33 0.5 30 -1 90 90 ENE 25 41 30.18 1022 1.75 2.816345 0 0
10:55 am 10:55 Windy with Snow Likely 33 0.6 32 -0.1 95 95 ENE 24 39 30.17 1022 0.75 1.207005 0 0
11:15 am 11:15 Windy with Snow Likely 33 0.8 32 0 94 94 ENE 22 35 30.18 1022 2 3.21868 0 0
11:35 am 11:35 Cloudy with Light Rain 34 0.9 32 0 94 94 ENE 29 46 30.17 1022 5 8.0467 0 0
11:55 am 11:55 Windy with Snow Likely 33 0.7 32 -0.1 94 94 ENE 26 43 30.17 1022 4 6.43736 0 0
12:15 pm 12:15 Windy with Snow Likely 33 0.5 31 -0.3 94 94 ENE 24 39 30.18 1022 1.5 2.41401 0 0
12:35 pm 12:35 Cloudy with Light Snow 33 0.3 31 -0.3 96 96 ENE 17 28 30.18 1022 0.75 1.207005 0 0
12:55 pm 12:55 Cloudy with Snow 33 0.3 32 -0.1 97 97 ENE 20 31 30.17 1022 0.5 0.80467 0.01 0.254
1:15 pm 13:15 Windy with Snow Likely 33 0.5 32 0 96 96 ENE 20 31 30.16 1021 0.75 1.207005 0.01 0.254
1:35 pm 13:35 Windy with Snow Likely 33 0.5 32 0 96 96 ENE 20 31 30.16 1021 1 1.60934 0.01 0.254
1:55 pm 13:55 Windy with Snow Likely 33 0.5 32 0 96 96 ENE 23 37 30.16 1021 4 6.43736 0.01 0.254
2:15 pm 14:15 Cloudy 33 0.5 32 -0.1 96 96 ENE 18 30 30.17 1022 7 11.26538 0 0
2:35 pm 14:35 Cloudy with Light Wintry Mix 33 0.5 32 -0.2 95 95 ENE 22 35 30.17 1022 10 16.0934 0 0
2:55 pm 14:55 Cloudy with Light Wintry Mix 33 0.5 31 -0.3 94 94 ENE 20 31 30.18 1022 10 16.0934 0 0
3:15 pm 15:15 Cloudy with Light Wintry Mix 33 0.3 31 -0.5 94 94 NE 22 35 30.18 1022 10 16.0934 0 0
3:35 pm 15:35 Cloudy with Light Wintry Mix 33 0.3 31 -0.5 94 94 NE 20 31 30.19 1022 4 6.43736 0 0
3:55 pm 15:55 Cloudy with Light Wintry Mix 32 0.1 31 -0.5 96 96 NE 18 30 30.2 1023 2 3.21868 0.01 0.254
4:15 pm 16:15 Cloudy with Light Wintry Mix 32 0 31 -0.7 95 95 NE 15 24 30.21 1023 2 3.21868 0 0
4:35 pm 16:35 Cloudy with Light Snow 32 -0.1 30 -1 94 94 NNE 18 30 30.2 1023 1 1.60934 0 0
4:55 pm 16:55 Cloudy with Light Snow 32 -0.2 30 -1 94 94 NE 17 28 30.21 1023 1.25 2.011675 0 0
5:15 pm 17:15 Windy with Snow Likely 31 -0.3 30 -1 95 95 NNE 22 35 30.21 1023 2.5 4.02335 0 0
5:35 pm 17:35 Cloudy with Light Wintry Mix 31 -0.3 30 -1.1 94 94 NE 21 33 30.22 1023 1.75 2.816345 0 0
5:55 pm 17:55 Cloudy with Light Snow 32 -0.2 30 -1 94 94 NNE 18 30 30.21 1023 1.5 2.41401 0 0
6:15 pm 18:15 Windy with Snow Likely 31 -0.4 30 -1.1 95 95 NNE 21 33 30.21 1023 2 3.21868 0 0
6:35 pm 18:35 Cloudy with Light Wintry Mix 31 -0.5 29 -1.5 93 93 NNE 21 33 30.24 1024 5 8.0467 0 0
6:55 pm 18:55 Cloudy with Light Snow 31 -0.3 30 -1.3 93 93 NNE 18 30 30.24 1024 1.5 2.41401 0.01 0.254
7:15 pm 19:15 Cloudy with Light Snow 31 -0.3 30 -1.1 94 94 NNE 18 30 30.25 1024 0.75 1.207005 0 0
7:35 pm 19:35 Cloudy with Light Snow 31 -0.5 30 -1.2 95 95 N 17 28 30.26 1025 0.75 1.207005 0 0
7:55 pm 19:55 Cloudy with Light Snow 31 -0.5 30 -1.2 95 95 NNE 18 30 30.28 1025 1 1.60934 0.01 0.254
8:15 pm 20:15 Cloudy with Light Snow 31 -0.5 30 -1.2 95 95 NNE 17 28 30.27 1025 1.25 2.011675 0 0
8:35 pm 20:35 Windy with Snow Likely 31 -0.8 29 -1.5 95 95 NNE 21 33 30.27 1025 2 3.21868 0 0
8:55 pm 20:55 Cloudy with Light Snow 30 -1 29 -1.7 95 95 NNE 14 22 30.29 1026 4 6.43736 0 0
9:15 pm 21:15 Partly Cloudy 30 -1.1 28 -2 94 94 NNE 17 28 30.3 1026 7 11.26538 0 0
9:35 pm 21:35 Mostly Cloudy 30 -1 29 -1.8 94 94 NNE 15 24 30.31 1026 10 16.0934 0 0
9:55 pm 21:55 Cloudy 31 -0.8 29 -1.6 94 94 N 12 19 30.32 1027 10 16.0934 0 0
10:15 pm 22:15 Cloudy 31 -0.6 29 -1.5 94 94 N 10 17 30.33 1027 10 16.0934 0 0
10:35 pm 22:35 Cloudy 31 -0.5 30 -1.2 95 95 NNE 12 19 30.32 1027 10 16.0934 0 0
10:55 pm 22:55 Cloudy 31 -0.6 29 -1.5 94 94 NNE 12 19 30.33 1027 10 16.0934 0 0
11:15 pm 23:15 Cloudy 31 -0.7 29 -1.5 94 94 NNE 9 15 30.32 1027 10 16.0934 0 0
11:35 pm 23:35 Cloudy 30 -1 29 -1.6 96 96 N 8 13 30.33 1027 10 16.0934 0 0
11:55 pm 23:55 Cloudy 30 -1 29 -1.7 95 95 N 10 17 30.33 1027 10 16.0934 0 0

Powered by AerisWeather